Lapse_Rate
6.5 6.5 6.5 6.5 6.5 6.5 6.5 6.5 6.5 6.5 6.5 6.5 6.5 6.5 6.6 6.8 6.7 7.1 7.0 7.5 7.0 5.9 4.4 3.2 2.4 2.3 2.2 2.2 3.1 4.3 6.3 5.1 4.0 3.7 3.6 3.8 4.1 4.6 4.8 4.6 6.1 6.8 6.3 6.0
6.5 6.5 6.5 6.5 6.5 6.5 6.5 6.5 6.5 6.5 6.5 6.5 6.7 6.8 6.7 6.7 7.0 7.0 7.1 6.9 6.6 5.9 3.8 2.6 1.4 1.2 1.2 1.1 1.3 2.5 3.1 3.8 5.9 5.8 5.0 4.1 4.2 3.9 4.2 4.4 4.8 5.4 6.4 6.4
6.5 6.5 6.5 6.5 6.5 6.5 6.5 6.5 6.5 6.5 6.5 6.5 6.5 6.5 6.6 6.6 7.1 7.2 7.2 6.0 4.6 3.4 2.5 1.8 0.7 0.9 0.2 0.8 1.2 0.7 0.6 1.0 1.9 2.7 4.3 5.9 5.6 5.2 4.1 4.1 4.5 4.6 4.9 5.4
6.5 6.5 6.5 6.5 6.5 6.5 6.5 6.5 6.5 6.5 6.5 6.5 6.6 6.9 6.6 7.3 6.4 6.7 6.1 4.7 3.1 2.6 1.3 -0.1 -0.7 -0.8 0.3 0.1 -0.3 -0.4 -0.4 -0.2 0.2 0.6 2.1 2.6 3.3 4.3 5.8 5.2 4.7 4.3 3.8 3.6
6.5 6.5 6.5 6.5 6.5 6.5 6.5 6.5 6.5 6.5 6.5 6.6 6.9 7.1 6.8 7.6 6.7 6.9 5.9 5.5 3.2 2.0 0.5 -0.6 -1.2 -1.1 -1.0 -1.4 -1.5 -1.3 -0.9 -0.2 0.7 0.2 -0.6 -1.0 -0.1 0.6 1.4 1.5 5.5 5.8 5.3 4.4
6.5 6.5 6.5 6.5 6.5 6.6 6.5 6.5 6.5 6.5 6.5 6.5 6.5 6.5 6.5 7.6 6.7 5.5 5.1 4.9 3.4 2.0 0.8 -0.6 -1.2 -0.9 -1.0 -1.8 -2.0 -2.1 -1.1 -0.5 -0.2 0.1 -0.3 -0.4 -0.7 -1.9 -1.4 -0.9 0.2 3.9 6.0 5.5
6.5 6.5 6.5 6.5 6.5 6.5 6.5 6.5 6.6 6.7 6.5 6.5 6.5 6.6 7.2 6.4 5.6 4.9 4.4 3.4 3.3 2.5 0.9 0.1 -0.3 -0.0 -0.7 -0.7 -1.2 0.2 0.4 0.2 -0.9 -1.3 -1.6 -0.6 -0.4 0.8 0.7 -1.0 -2.3 -3.2 -2.2 -4.4
6.5 6.5 6.5 6.6 6.5 6.5 6.4 6.4 6.7 6.8 6.9 7.0 6.9 6.7 6.5 5.1 3.4 3.2 3.5 4.1 4.4 2.8 1.5 1.3 0.9 1.4 1.3 1.1 2.6 2.9 2.1 0.6 -0.5 -0.3 -0.5 -0.3 0.2 0.2 0.7 0.3 -0.8 -3.2 -4.9 -5.2
6.5 6.5 6.6 6.9 6.7 6.6 6.6 6.7 6.9 7.0 7.2 6.0 6.4 6.8 5.6 4.3 3.7 3.6 3.4 2.9 2.6 2.0 1.5 1.1 1.4 1.9 1.6 2.5 2.8 2.5 2.2 2.2 3.4 3.1 2.4 2.0 0.9 -0.0 -0.2 0.0 -0.5 -1.1 -1.2 -1.7
6.5 6.5 6.5 6.9 7.2 7.7 7.7 7.1 6.5 7.0 6.6 5.8 6.5 6.4 6.0 4.6 4.1 2.9 2.1 1.5 1.9 1.7 1.2 1.2 2.0 1.8 2.4 3.1 3.0 2.1 2.0 2.5 2.9 3.0 3.3 3.1 3.0 2.8 2.4 2.3 2.3 2.4 1.8 1.1
6.5 6.5 6.8 7.0 7.1 7.3 7.7 6.2 5.1 4.7 6.1 6.0 3.5 5.0 4.2 3.7 3.5 2.4 1.1 1.1 1.2 1.5 1.8 2.2 2.8 2.4 2.7 3.2 3.9 3.4 3.4 3.5 3.4 3.5 4.0 4.9 4.9 5.3 6.1 5.5 4.5 3.9 4.0 3.9
6.5 6.8 6.7 6.8 7.3 6.8 4.8 4.8 5.2 4.1 3.7 4.5 3.1 2.8 2.3 2.0 3.1 2.8 2.5 2.5 2.1 2.6 2.9 2.8 2.6 2.2 2.0 2.7 2.0 1.9 2.0 2.6 2.6 2.7 2.8 3.5 4.5 5.2 5.2 5.4 6.0 5.9 5.6 4.9
6.9 6.4 5.3 6.1 7.7 6.9 6.1 5.6 4.7 3.0 4.8 4.5 5.0 4.8 4.8 5.1 5.1 4.5 3.6 3.0 2.1 2.2 2.0 2.1 2.4 2.3 2.5 2.0 2.6 2.3 2.2 2.4 2.5 2.5 2.9 2.9 2.8 2.4 2.9 4.1 4.3 4.7 4.9 5.1
6.7 6.8 7.1 7.5 7.2 6.4 5.2 5.0 4.2 3.8 4.4 4.4 4.7 4.6 4.9 5.2 5.1 4.3 3.6 3.7 3.3 2.2 1.7 1.7 2.2 2.5 2.6 1.9 1.5 1.9 1.9 1.8 1.7 1.9 1.7 1.8 2.4 3.3 1.9 1.8 2.7 2.7 3.1 3.4
7.6 6.4 6.3 6.1 5.8 7.1 6.5 5.6 4.8 5.2 5.5 5.0 5.7 5.7 5.6 4.6 4.3 4.5 4.6 4.0 3.2 2.1 1.6 1.5 1.7 2.6 2.8 2.2 1.1 1.6 2.3 2.0 1.5 1.6 1.7 2.1 2.5 2.3 2.4 2.4 2.4 3.1 2.9 2.6
7.2 7.7 6.4 5.6 6.0 6.2 6.2 6.7 6.4 7.4 6.8 6.5 6.0 5.4 4.9 4.1 3.5 2.9 2.5 2.3 1.3 1.4 2.3 1.7 2.1 2.7 2.7 2.0 1.1 1.6 2.1 2.8 2.5 2.6 2.3 2.3 3.2 3.1 2.9 2.8 2.7 2.4 2.2 3.0
7.2 7.1 7.0 6.7 6.8 7.3 7.1 6.5 6.2 6.2 7.0 7.0 6.9 6.3 5.6 4.7 3.6 2.6 1.7 1.5 0.9 0.3 0.2 1.0 1.9 2.0 2.3 2.4 2.4 3.0 2.9 2.7 2.5 3.3 3.9 4.3 3.9 3.7 3.9 3.7 3.5 3.4 3.4 3.9
5.6 5.2 6.1 6.1 6.1 6.3 6.2 6.4 6.1 5.7 5.1 4.8 4.0 2.8 1.8 1.8 1.6 1.7 1.5 1.4 1.0 0.8 0.1 0.4 2.0 2.0 1.9 2.1 2.1 2.7 2.6 3.2 3.7 3.6 3.9 4.2 4.3 4.3 4.2 4.4 4.6 4.4 4.5 4.1
6.4 6.6 6.6 6.5 6.2 6.4 6.3 5.7 4.8 4.1 3.8 3.3 2.6 1.7 1.8 1.6 1.6 1.3 0.9 0.7 0.4 0.9 0.8 1.4 4.0 2.9 2.9 4.3 3.4 3.1 2.9 2.6 3.5 3.8 4.2 4.0 3.8 4.4 4.0 3.8 3.8 3.8 4.2 3.7
5.6 5.4 5.4 5.1 5.2 4.9 4.4 3.9 3.9 3.2 2.6 1.7 0.8 0.6 1.2 -0.8 -0.6 -0.3 -0.7 -1.3 -1.7 -0.2 1.6 2.4 3.0 3.4 3.7 3.6 3.0 3.2 2.6 2.5 3.5 3.2 2.7 3.1 3.2 3.2 3.9 3.5 3.2 2.9 3.3 3.0
4.5 4.1 3.7 3.5 3.4 3.1 1.9 1.9 2.0 1.9 1.6 0.8 0.9 0.1 0.1 0.5 -0.5 -0.9 0.7 1.1 1.4 2.5 2.6 2.5 2.7 3.4 3.8 3.2 3.1 1.5 2.2 2.2 2.4 2.5 1.8 0.9 1.2 2.3 1.7 1.0 2.0 2.3 2.4 1.6
3.5 3.4 2.8 2.8 3.5 3.3 2.5 1.8 1.9 2.0 2.5 2.1 1.1 1.1 1.4 1.4 1.7 1.6 -0.3 1.7 2.5 0.7 2.2 2.4 2.8 0.7 1.9 2.2 2.5 1.4 1.8 1.4 1.3 1.3 0.5 0.2 0.0 0.4 -0.3 -1.5 -2.5 -2.6 -2.1 -2.6
4.3 4.3 3.9 3.8 3.8 3.4 3.5 3.0 2.3 2.1 2.0 2.4 2.4 2.7 3.3 3.4 3.3 1.8 1.9 3.4 3.5 1.8 3.3 0.6 -0.6 -0.1 -0.4 -1.3 -1.8 -1.1 -0.3 -0.0 -0.5 -1.9 -2.9 -3.3 -4.2 -3.8 -2.4 -1.9 -3.1 -3.5 -2.9 -1.5
5.3 5.2 4.8 4.7 4.6 5.2 4.6 5.1 5.2 4.3 2.7 4.1 3.7 4.4 5.2 3.0 0.9 3.8 3.3 1.9 0.7 -2.0 -0.8 -0.4 0.6 -1.0 -2.1 -2.1 -2.6 -3.6 -3.7 -3.1 -2.2 -2.8 -2.6 -3.2 -4.5 -4.8 -5.2 -5.1 -4.8 -5.0 -4.0 -3.6
6.7 6.3 6.2 6.4 6.9 6.2 6.3 6.5 6.1 6.3 6.1 5.9 5.8 6.1 6.3 5.5 2.4 3.0 1.6 2.1 3.4 3.2 0.4 -1.3 0.1 -1.3 -1.9 -3.7 -3.1 -1.6 -2.8 -3.7 -4.0 -2.2 -2.2 -2.6 -2.1 -3.5 -5.0 -4.9 -4.2 -3.2 -4.3 -5.2
6.7 5.8 5.4 5.3 5.0 4.9 5.5 7.1 6.3 6.1 5.8 3.2 2.5 -0.0 -0.3 2.1 3.6 5.3 4.4 4.6 5.5 4.6 2.7 -0.7 -1.9 -3.4 -2.3 -1.2 -2.5 -1.3 -1.3 -0.9 -2.0 -2.4 -1.4 -2.8 -2.8 -2.7 -3.6 -4.1 -4.1 -4.5 -4.0 -1.7
5.4 5.4 5.4 4.9 4.6 4.6 5.0 5.0 4.0 3.8 3.5 2.6 2.7 1.3 1.9 1.5 2.0 2.9 0.6 0.6 0.5 -0.4 -0.7 1.6 0.6 1.1 0.6 0.0 -0.0 -1.3 -1.3 -0.7 -0.1 -1.0 -2.0 -2.7 -3.0 -1.7 -3.6 -2.3 -0.7 0.9 2.0 1.6
Wind_Speed
7 12 12 12 8 12 16 12 6 4 11 5 6 5 10 11 10 13 13 19 16 14 13 13 13 12 11 11 11 13 2 11 12 12 12 12 13 14 15 17 17 17 17 18
3 5 8 7 13 12 13 16 14 13 10 3 8 2 5 8 12 13 15 18 17 14 14 12 13 11 10 11 12 11 12 12 7 11 12 14 14 14 15 17 17 18 19 19
3 7 9 5 3 10 8 7 11 5 4 9 5 6 5 2 11 15 14 14 14 14 14 13 13 11 10 11 11 12 13 13 13 12 11 9 13 15 16 18 16 18 20 19
3 5 3 4 13 11 13 9 8 7 6 12 10 11 2 7 14 13 13 15 15 11 12 13 12 11 8 10 11 11 12 13 14 14 11 11 11 9 14 16 18 19 19 21
3 3 6 10 4 5 4 3 7 8 10 20 11 20 14 13 15 14 14 12 12 11 12 11 13 12 12 12 11 11 13 14 14 14 15 15 13 12 11 11 14 19 20 21
2 2 4 3 6 14 6 2 10 7 18 21 17 8 7 10 13 15 15 12 11 12 11 10 12 11 12 13 13 15 16 15 14 14 13 13 13 15 14 12 13 13 17 17
4 3 6 6 2 6 2 2 5 14 11 8 7 9 12 11 13 14 13 14 10 9 9 10 10 10 12 13 14 14 13 13 13 14 14 12 12 10 11 12 9 9 6 9
3 3 8 11 7 5 4 3 9 12 15 17 16 15 13 12 13 13 13 11 10 9 10 10 10 11 12 12 11 11 12 12 13 14 11 10 11 10 9 8 7 8 10 9
6 4 6 13 11 12 10 11 8 9 12 13 14 13 12 12 12 11 10 9 9 8 10 9 11 12 12 11 11 9 10 11 11 12 14 12 13 13 9 8 7 7 8 8
3 6 9 12 15 17 14 14 14 12 12 12 14 12 12 11 10 9 9 10 9 10 11 12 11 12 11 11 9 9 11 11 10 11 13 15 11 11 10 8 7 7 8 8
2 10 11 12 12 14 13 14 16 17 15 12 14 14 12 12 11 10 11 10 11 11 12 12 12 12 12 11 8 9 11 10 9 8 10 11 14 15 12 16 12 8 8 8
2 5 9 8 9 9 12 13 14 14 14 14 14 13 13 12 11 10 10 10 11 12 12 12 12 13 14 13 10 9 10 8 8 7 8 8 8 11 29 32 31 31 28 18
4 10 11 9 11 11 13 12 12 17 12 12 13 11 13 12 11 12 10 10 10 10 10 10 11 13 12 11 10 12 11 9 7 8 8 8 8 9 10 14 29 33 32 30
9 5 8 7 6 13 13 12 14 15 12 11 11 10 11 12 11 11 10 9 9 9 11 10 11 12 12 10 9 8 8 11 7 7 7 7 7 8 9 9 9 10 20 23
11 12 11 11 13 11 10 10 12 10 10 11 10 10 10 11 10 9 8 8 9 11 11 11 11 11 10 9 8 10 8 6 6 6 7 7 7 8 9 9 9 8 8 11
9 9 11 12 10 9 8 8 10 10 10 10 10 10 10 11 11 10 9 10 11 10 10 9 10 9 9 8 7 7 8 10 7 5 5 6 6 7 8 8 8 8 8 8
5 6 7 8 8 8 9 9 9 9 9 10 9 9 10 10 10 9 8 8 8 9 8 8 9 9 8 9 8 5 5 6 8 6 6 6 6 7 7 7 7 8 8 9
9 8 8 8 7 8 9 9 9 9 9 9 8 8 7 8 7 6 6 6 8 10 11 10 7 8 8 8 6 5 5 5 6 6 6 6 6 6 6 7 7 7 7 8
10 11 10 11 9 10 9 9 9 8 8 7 8 8 7 7 6 6 5 8 8 8 9 9 11 8 9 10 7 6 5 5 6 6 6 7 7 7 6 6 6 6 7 6
10 10 11 12 11 9 9 7 7 8 6 7 6 6 7 4 3 5 5 7 3 2 4 8 7 7 8 9 8 6 6 6 6 6 6 6 6 6 6 8 6 6 6 5
9 9 10 9 9 9 7 4 6 6 4 5 7 6 5 4 4 3 5 5 5 6 7 8 7 5 6 6 6 5 5 5 6 5 5 4 5 6 5 4 5 4 4 4
5 8 7 7 8 8 6 5 5 5 5 5 4 5 6 6 5 6 3 4 3 6 5 5 5 7 6 8 5 5 6 5 4 4 4 4 4 4 4 4 4 3 3 3
5 7 6 6 7 6 5 5 4 5 5 5 5 4 5 4 2 2 3 4 3 4 4 3 5 7 7 4 4 4 5 5 4 4 3 3 3 3 3 3 2 3 3 3
6 6 6 6 6 6 7 5 6 6 4 6 5 3 5 3 2 2 3 3 3 4 3 3 5 6 6 3 3 3 3 3 3 3 3 3 3 3 3 2 3 2 2 3
5 6 5 4 4 2 4 5 4 4 5 6 5 5 5 2 3 2 2 1 3 3 2 4 4 5 3 3 3 3 2 2 1 3 3 2 2 2 2 2 2 2 1 0
6 5 4 5 3 2 1 3 3 3 4 3 1 1 2 1 2 2 1 2 3 3 1 1 1 1 1 2 2 2 2 1 2 1 2 1 1 2 2 1 0 0 1 3
4 5 4 4 3 3 4 4 3 2 2 3 2 1 2 2 3 3 3 1 1 0 1 2 1 1 0 1 1 1 2 2 3 1 1 2 2 3 3 4 4 4 4 6
Wind_Direction
291 280 279 293 223 259 232 223 208 240 231 162 135 118 302 318 91 84 81 81 69 64 59 55 48 35 24 20 2 357 206 210 219 224 228 228 226 227 223 217 216 219 222 225
285 351 326 287 239 218 246 237 229 244 248 72 99 195 265 318 97 80 61 68 69 56 54 49 42 30 23 16 7 7 21 18 341 237 225 226 229 229 228 228 227 223 225 225
279 330 303 285 208 244 200 229 229 254 224 121 120 166 282 77 90 88 77 71 66 52 42 42 44 26 23 18 9 14 12 5 2 356 360 275 238 227 228 232 231 229 231 228
268 320 276 279 318 261 191 180 204 195 231 186 173 155 203 108 87 72 67 59 59 54 40 25 21 23 32 31 24 16 14 2 354 346 349 344 336 325 255 236 228 229 232 230
214 214 294 300 356 343 183 36 296 221 193 148 147 92 63 62 69 72 68 66 68 53 38 29 18 8 16 23 25 21 13 3 354 351 340 336 330 325 311 306 272 234 231 231
169 231 256 271 326 4 360 90 327 145 173 163 145 107 102 82 75 70 64 61 66 53 39 27 16 11 22 19 11 7 1 357 357 351 341 329 328 318 312 302 290 278 242 237
211 250 286 277 298 33 26 133 356 87 100 100 90 98 115 93 74 69 66 54 56 55 45 29 16 16 29 19 12 357 354 357 4 359 345 340 328 320 314 316 324 347 30 38
175 221 266 334 311 141 138 42 94 82 98 100 97 97 95 84 70 63 61 60 57 57 50 35 30 32 33 25 5 8 9 9 8 5 0 353 345 340 339 344 13 38 53 41
173 206 76 37 51 40 95 113 81 94 97 108 105 98 89 81 75 66 61 55 56 54 52 39 36 32 34 18 17 22 28 26 23 21 16 10 10 2 357 13 29 41 55 59
330 67 79 71 57 55 58 72 63 64 87 101 102 95 90 83 64 61 53 47 47 50 47 42 35 34 32 27 31 37 41 36 32 33 32 30 31 27 20 17 32 46 54 62
136 110 89 69 66 59 53 67 66 59 56 75 92 81 80 70 57 47 46 37 37 39 42 37 34 37 36 30 35 50 47 42 38 37 36 40 42 39 39 38 40 51 54 56
27 44 97 68 70 81 72 59 64 65 54 51 64 71 71 64 57 51 46 39 41 39 42 31 30 33 33 34 40 49 53 43 38 40 37 41 43 49 41 41 43 49 52 62
55 61 81 77 61 80 78 68 61 73 60 67 65 75 80 81 70 60 49 42 39 34 29 26 31 34 25 20 32 52 59 48 45 47 44 42 45 55 52 33 43 45 48 53
118 96 82 54 82 83 86 85 75 69 66 70 75 71 78 81 78 65 56 49 46 41 35 28 32 31 21 19 28 36 46 48 51 43 42 43 40 50 65 57 36 31 33 47
54 70 86 85 65 89 88 87 80 75 77 70 67 75 81 85 79 66 54 51 50 48 34 28 30 24 13 18 30 40 49 43 41 46 44 44 48 54 55 61 63 49 31 30
53 75 78 82 79 75 82 89 96 94 87 89 88 89 89 86 78 65 51 43 50 39 29 24 26 9 16 16 20 30 38 37 47 46 51 48 46 55 59 61 61 60 54 39
101 89 94 84 88 85 83 78 86 85 93 101 108 105 102 93 79 64 48 38 43 36 16 19 15 5 14 25 27 30 36 41 30 42 52 58 58 60 62 61 63 61 57 50
69 65 71 102 109 104 90 86 86 91 94 99 93 82 71 73 75 61 44 29 34 35 20 1 17 14 18 25 26 28 32 45 48 53 51 56 60 60 59 64 63 64 62 55
79 91 94 96 97 101 103 95 84 85 86 91 90 83 82 73 68 59 43 49 41 34 2 358 12 22 28 35 36 32 38 43 48 48 54 56 58 57 60 60 59 59 62 61
83 83 87 86 81 93 95 79 89 86 79 92 90 85 88 62 69 69 56 60 26 330 346 6 6 27 36 34 36 41 45 43 53 54 49 54 55 54 57 55 54 52 59 60
76 78 79 80 81 79 77 74 83 84 72 82 102 99 98 69 60 81 61 61 360 17 17 15 23 31 36 37 40 33 42 49 54 54 56 48 50 55 50 42 45 48 56 47
86 91 86 86 94 88 75 76 82 86 94 99 90 99 98 89 80 75 61 70 26 27 22 20 29 34 38 39 42 41 47 43 44 49 53 58 64 69 64 61 54 31 53 53
105 107 109 106 107 105 95 91 90 97 89 89 96 89 86 86 82 93 77 29 43 39 42 27 22 42 51 48 43 50 49 45 44 47 58 84 94 94 84 67 58 62 61 77
117 123 125 127 125 123 118 130 118 108 106 92 92 121 121 109 14 60 98 110 72 61 37 55 51 48 46 30 60 56 53 56 43 48 52 56 74 79 60 52 55 61 83 89
141 153 164 185 155 138 147 154 145 138 119 107 107 107 119 151 144 224 128 173 200 74 57 3 60 51 56 68 60 76 66 63 58 57 67 92 104 95 83 85 104 122 116 119
106 94 88 84 82 55 115 127 122 127 130 117 57 59 54 42 71 84 75 99 147 184 171 259 348 87 52 70 110 173 171 167 103 106 116 121 170 142 150 164 145 310 231 237
80 96 94 80 57 62 75 95 98 97 132 131 132 272 130 100 115 116 111 119 95 129 199 242 245 282 288 268 280 241 227 226 218 215 233 193 187 192 196 205 229 245 248 251